EDT,Max TemperatureF,Mean TemperatureF,Min TemperatureF,Max Dew PointF,MeanDew PointF,Min DewpointF,Max Humidity, Mean Humidity, Min Humidity, Max Sea Level PressureIn, Mean Sea Level PressureIn, Min Sea Level PressureIn, Max VisibilityMiles, Mean VisibilityMiles, Min VisibilityMiles, Max Wind SpeedMPH, Mean Wind SpeedMPH, Max Gust SpeedMPH,PrecipitationIn, CloudCover, Events, WindDirDegrees
2010-10-1,67,57,47,55,47,43,87,66,44,30.04,29.94,29.81,10,10,7,15,5,21,0.01,5,,337
2010-10-2,70,56,41,48,43,39,100,69,37,30.05,30.00,29.93,10,8,1,8,1,12,0.00,1,,332
2010-10-3,58,54,50,52,48,47,93,83,72,30.18,30.10,30.00,10,7,2,7,2,9,0.57,8,Rain,335
2010-10-4,53,50,47,48,46,44,93,85,77,30.24,30.19,30.15,10,9,6,9,4,12,0.03,8,,359
2010-10-5,51,48,45,45,43,42,93,84,74,30.25,30.18,30.12,10,9,2,10,4,15,0.13,8,Rain,291
2010-10-6,51,48,44,49,45,41,93,90,86,30.11,30.02,29.93,10,6,2,12,5,15,0.38,8,Rain,233
2010-10-7,70,59,48,50,47,44,93,69,44,30.09,29.97,29.89,10,10,10,13,4,17,0.00,4,,236
2010-10-8,74,58,41,48,44,39,100,66,31,30.15,30.09,30.04,10,8,0,9,3,14,0.00,0,Fog,203
2010-10-9,79,63,47,50,46,41,93,60,27,30.09,30.04,30.00,10,10,10,9,2,14,0.00,0,,237
2010-10-10,81,66,50,54,49,47,89,64,38,30.03,29.95,29.86,10,10,9,12,4,18,0.00,2,,206
2010-10-11,81,68,54,56,49,44,83,61,39,29.93,29.87,29.81,10,10,10,9,3,14,T,2,Rain,213
2010-10-12,76,63,49,54,49,40,80,62,44,29.97,29.88,29.81,10,10,10,12,3,16,0.00,1,,278
2010-10-13,72,57,42,46,42,35,100,64,27,30.05,30.01,29.92,10,5,0,7,1,10,0.00,2,Fog,16
2010-10-14,63,54,45,52,45,32,93,64,35,29.95,29.91,29.88,10,9,4,15,5,28,0.06,6,Rain,254
2010-10-15,59,51,42,43,39,37,89,68,47,30.03,29.87,29.78,10,10,10,15,4,23,0.04,5,,272
2010-10-16,64,51,38,41,37,32,92,62,32,30.16,30.09,30.03,10,10,9,14,4,20,0.00,0,,247
2010-10-17,72,60,48,43,40,37,71,51,31,30.09,30.03,29.96,10,10,10,12,5,18,0.00,1,,225
2010-10-18,63,52,40,44,40,35,93,65,36,30.05,29.99,29.94,10,10,5,13,3,16,0.08,3,Rain,1
2010-10-19,61,50,39,45,42,35,93,66,39,30.01,29.96,29.92,10,8,2,8,2,13,0.10,5,Rain,345
2010-10-20,63,49,34,41,35,32,92,62,32,29.99,29.91,29.79,10,9,6,10,4,17,0.00,0,,209
2010-10-21,60,52,43,41,33,29,65,49,33,29.99,29.80,29.68,10,10,10,15,6,22,0.00,5,,256
2010-10-22,56,45,34,33,30,26,89,62,35,30.24,30.16,30.00,10,10,10,12,3,20,0.00,0,,238
2010-10-23,72,54,35,40,34,31,82,54,26,30.27,30.22,30.14,10,10,10,12,3,18,0.00,2,,205
2010-10-24,77,64,51,47,42,39,68,49,29,30.17,30.07,29.94,10,10,10,12,4,20,0.00,0,,191
2010-10-25,67,63,59,61,55,44,97,73,48,29.92,29.83,29.77,10,8,2,10,4,17,0.33,6,Rain,187
2010-10-26,83,70,56,61,57,52,90,65,40,29.82,29.73,29.54,10,8,2,21,7,30,0.54,5,Rain,180
2010-10-27,69,60,51,52,48,41,93,65,37,29.96,29.89,29.82,10,10,10,14,6,24,0.01,2,,200
2010-10-28,66,56,45,47,35,29,58,42,26,30.16,30.00,29.88,10,10,10,20,8,30,0.00,2,,253
2010-10-29,48,41,34,36,32,28,82,66,49,30.28,30.23,30.14,10,10,8,12,5,18,T,7,Rain,268
2010-10-30,58,44,30,31,26,20,85,54,23,30.24,30.05,29.83,10,10,9,14,5,21,0.00,0,,201
2010-10-31,54,46,37,39,30,21,64,46,28,30.26,30.03,29.87,10,10,10,13,4,18,0.00,3,,286